EDT,Max TemperatureF,Mean TemperatureF,Min TemperatureF,Max Dew PointF,MeanDew PointF,Min DewpointF,Max Humidity, Mean Humidity, Min Humidity, Max Sea Level PressureIn, Mean Sea Level PressureIn, Min Sea Level PressureIn, Max VisibilityMiles, Mean VisibilityMiles, Min VisibilityMiles, Max Wind SpeedMPH, Mean Wind SpeedMPH, Max Gust SpeedMPH,PrecipitationIn, CloudCover, Events, WindDirDegrees
2013-5-1,73,65,59,64,61,57,96,87,73,30.26,30.18,30.09,10,9,2,17,8,22,0.04,7,Rain,33
2013-5-2,72,66,60,64,60,54,100,88,55,30.29,30.25,30.21,10,7,1,17,11,26,0.06,7,Rain,39
2013-5-3,70,63,57,59,54,46,93,77,52,30.20,30.17,30.14,10,10,8,22,13,32,0.00,7,,38
2013-5-4,64,60,55,57,55,52,100,89,72,30.14,30.08,30.04,10,5,1,20,13,30,0.34,8,Rain,35
2013-5-5,71,64,57,63,59,55,97,88,75,30.06,30.01,29.98,10,8,2,13,10,21,0.07,6,Rain,48
2013-5-6,73,67,62,65,62,58,100,87,66,29.99,29.92,29.88,10,6,1,18,9,71,1.59,7,Rain,127
2013-5-7,71,62,55,61,56,53,97,82,63,29.99,29.94,29.88,10,9,2,14,5,17,0.05,2,Rain,192
2013-5-8,71,62,54,61,58,53,100,79,57,30.05,30.01,29.96,10,10,5,15,5,,0.01,1,,216
2013-5-9,73,68,64,64,62,60,93,80,71,30.09,30.03,29.99,10,9,1,15,9,,0.00,2,,231
2013-5-10,75,68,62,68,65,61,100,84,69,30.11,30.07,30.04,10,9,2,14,5,,0.00,0,,207
2013-5-11,79,74,70,70,68,65,93,85,76,30.05,29.95,29.87,10,9,7,18,12,26,0.00,0,,206
2013-5-12,77,72,66,67,63,47,93,74,50,29.99,29.86,29.80,10,9,4,15,11,22,0.00,4,,266
2013-5-13,71,62,51,52,43,36,72,50,31,30.15,30.04,29.99,10,10,10,17,10,24,0.00,3,,360
2013-5-14,70,60,50,49,40,31,71,48,24,30.25,30.19,30.16,10,10,10,16,8,36,0.00,0,,309
2013-5-15,75,69,63,62,59,49,78,70,58,30.16,30.06,29.97,10,10,9,24,15,31,0.00,1,,218
2013-5-16,78,72,66,66,64,62,87,79,64,30.00,29.96,29.93,10,9,8,20,16,26,0.00,0,,233
2013-5-17,81,75,70,68,66,65,93,77,62,30.15,30.07,29.99,10,9,6,12,7,,0.00,0,,224
2013-5-18,79,73,68,71,68,65,96,84,76,30.19,30.16,30.13,10,10,7,12,7,,0.00,1,,179
2013-5-19,80,74,68,68,67,65,93,78,64,30.19,30.16,30.13,10,10,9,12,5,17,0.00,3,,176
2013-5-20,80,74,70,69,67,65,91,81,68,30.18,30.14,30.09,10,10,8,15,11,21,0.00,3,,182
2013-5-21,79,75,71,71,69,68,93,84,71,30.10,30.06,30.03,10,10,9,17,9,21,0.00,1,,200
2013-5-22,81,76,72,72,71,69,93,84,74,30.08,30.04,30.01,10,10,8,14,10,21,0.00,2,,201
2013-5-23,77,72,70,72,70,66,100,90,82,30.02,29.95,29.86,10,8,2,14,8,23,0.29,6,Rain,191
2013-5-24,82,72,63,72,63,45,100,74,47,30.13,29.89,29.78,10,10,8,21,9,28,0.00,3,,300
2013-5-25,73,62,51,48,42,37,74,51,28,30.25,30.19,30.14,10,10,10,14,9,18,0.00,0,,335
2013-5-26,73,64,55,57,53,50,90,67,46,30.24,30.20,30.16,10,10,10,14,4,,0.00,1,,149
2013-5-27,77,64,54,62,55,48,97,69,40,30.30,30.26,30.22,10,10,2,8,2,,0.00,0,,144
2013-5-28,78,73,68,67,64,62,90,74,62,30.30,30.25,30.22,10,10,10,15,7,20,0.00,0,,165
2013-5-29,80,74,68,69,67,64,93,77,62,30.29,30.25,30.21,10,10,10,13,6,,0.00,0,,205
2013-5-30,82,72,64,71,68,63,96,80,67,30.30,30.26,30.23,10,10,9,12,3,,0.00,0,,178
2013-5-31,82,76,70,72,71,69,97,82,71,30.26,30.22,30.17,10,10,10,15,6,17,0.00,1,,182